Regional Weather Roundup
Issued by NWS

Home | Current Version | Previous Version | Graphics & Text | Print | Product List | Glossary Off
Versions: 1 2 3 4 5 6 7 8 9 10 11 12 13 14 15 16 17 18 19 20 21 22 23 24 25 26 27 28 29 30 31 32 33 34 35 36 37 38 39 40 41 42 43 44 45 46 47 48 49 50

000
ASUS43 KMPX 262001
RWRMN
WEATHER ROUNDUP FOR MINNESOTA
NATIONAL WEATHER SERVICE TWIN CITIES/CHANHASSEN MN
300 PM CDT FRI MAY 26 2017


NOTE: "FAIR" INDICATES FEW OR NO CLOUDS BELOW 12,000 FEET WITH NO
SIGNIFICANT WEATHER AND/OR OBSTRUCTIONS TO VISIBILITY. N/A MEANS
CURRENT SKY AND/OR WEATHER CONDITIONS ARE NOT AVAILABLE.

MNZ060>063-068>070-262100-
   Twin Cities Metro

CITY           SKY/WX    TMP DP  RH WIND       PRES   REMARKS
TWIN CITIES    PTSUNNY   76  55  48 SW9       29.73S
ST PAUL        MOSUNNY   76  59  55 S10       29.73S
CRYSTAL        SUNNY     77  54  44 S6        29.71S
BLAINE         MOSUNNY   79  55  44 S12G17    29.72S
LAKEVILLE      MOSUNNY   73  57  56 S7        29.74S
EDEN PRAIRIE   MOSUNNY   77  57  50 VRB6      29.72S
SOUTH ST PAUL  MOSUNNY   76  56  50 S8        29.73S
LAKE ELMO      FAIR      73  59  60 S13       29.75S
$$
MNZ001>005-007-008-013>017-022>024-027-028-262100-
   Northwest Minnesota

CITY           SKY/WX    TMP DP  RH WIND       PRES   REMARKS
BEMIDJI        MOSUNNY   70  44  39 SW14      29.68S
HALLOCK        CLOUDY    66  45  45 W21G26    29.64R
ROSEAU         CLOUDY    70  48  46 W15G26    29.63R
WARROAD        CLOUDY    70  48  46 SW10G17   29.63R
CROOKSTON      MOSUNNY   66  45  45 W22G29    29.69R
FOSSTON        MOSUNNY   70  43  37 SW16G24   29.69R
DETROIT LAKES  MOSUNNY   70  45  40 W14G20    29.73R
MOORHEAD       MOSUNNY   72  41  33 W18G25    29.72S
PARK RAPIDS    LGT RAIN  72  45  37 W17       29.70S
MAHNOMEN       FAIR      72  44  36 W18       29.69R
$$
MNZ006-009>011-018-025>026-262100-
   North Central Minnesota

CITY           SKY/WX    TMP DP  RH WIND       PRES   REMARKS
BAUDETTE       PTSUNNY   71  43  36 SW10      29.62R
FLAG ISLAND    PTSUNNY   63  50  63 S9        29.60S HAZE
INTL FALLS     MOSUNNY   72  48  42 SW7G21    29.62F
WASKISH        CLOUDY    72  48  43 W14       29.66S
BIG FORK       MOSUNNY   75  46  35 SW15G23   29.65S
LONGVILLE      SUNNY     75  45  33 SW9G18    29.68S
GRAND RAPIDS   MOSUNNY   74  51  44 W12G18    29.68S
CRANE LAKE     MOSUNNY   72  52  49 SE5       29.64F
ORR            PTSUNNY   55  52  88 CALM      29.64R
COOK           CLOUDY    72  52  49 SW9G16    29.66S THUNDER
WALKER         MOCLDY    71  46  39 W9G20     29.68S
$$
MNZ012-019>021-037-262100-
   Northeast Minnesota

CITY           SKY/WX    TMP DP  RH WIND       PRES   REMARKS
DULUTH         CLOUDY    69  54  58 SE10      29.70F
ELY            CLOUDY    73  52  46 S15G21    29.67F
HIBBING        CLOUDY    72  54  53 S8G18     29.66S
EVELETH        PTSUNNY   73  46  37 S10       29.68F
DULUTH HARBOR  CLOUDY    52  46  82 E6        29.74S
TWO HARBORS    MOSUNNY   72  57  60 E5        29.70F
SILVER BAY     PTSUNNY   64  55  72 E5        29.72S
GRAND MARAIS     N/A     45  43  93 NE10      29.76F
G MARAIS ARPRT CLOUDY    55  46  71 E5        29.78F
$$
MNZ029>031-032-039>041-046>048-054>057-064-262100-
   West Central Minnesota

CITY           SKY/WX    TMP DP  RH WIND       PRES   REMARKS
FERGUS FALLS   MOSUNNY   70  46  43 W18G24    29.71S
WHEATON        MOSUNNY   72  41  33 W12G22    29.77R
MORRIS         SUNNY     72  46  40 W16       29.75R
ALEXANDRIA     PTSUNNY   69  46  43 W16       29.75S
ELBOW LAKE     FAIR      71  47  42 NW17G24   29.75R
WADENA         SUNNY     72  46  40 W13G18    29.72S
GLENWOOD       MOSUNNY   70  48  46 W12G18    29.76R
APPLETON       SUNNY     72  43  35 W13G24    29.76R
BENSON         MOSUNNY   73  45  35 W15G22    29.76S
ORTONVILLE     MOSUNNY   72  43  35 W10G21    29.76S
MADISON        MOSUNNY   73  48  40 W14G20    29.77S
WILLMAR        FAIR      73  52  46 W17G23    29.76S
$$
MNZ033>034-036-042>043-049>051-058-059-262100-
   Central Minnesota

CITY           SKY/WX    TMP DP  RH WIND       PRES   REMARKS
ST CLOUD       SUNNY     75  53  46 SW9       29.71S
SAUK CENTRE    FAIR      70  49  46 W12G24    29.74S
PAYNESVILLE    SUNNY     74  44  34 W21       29.75R
AITKIN         MOSUNNY   75  54  46 W13       29.67S
PINE RIVER     MOSUNNY   72  50  46 SW8       29.73S
BRAINERD       MOSUNNY   75  45  34 SW17      29.69F
STAPLES        MOSUNNY   72  45  37 SW13      29.72R
LONG PRAIRIE   FAIR      68  46  45 W10G17    29.74S
LITTLE FALLS   MOSUNNY   72  43  35 W12G17    29.72S
LITCHFIELD     SUNNY     75  52  43 W12       29.74S
BUFFALO        SUNNY     76  53  44 S6        29.72F
MAPLE LAKE     MOSUNNY   77  54  44 SW8       29.73S
HUTCHINSON     SUNNY     76  52  42 W18       29.75S
$$
MNZ037-044-045-052-053-262100-
   East Central Minnesota

CITY           SKY/WX    TMP DP  RH WIND       PRES   REMARKS
PRINCETON      SUNNY     81  55  41 SW9       29.70F
MORA           MOSUNNY   73  54  49 S12       29.72S
CAMBRIDGE      MOSUNNY   79  59  50 SW6       29.69F
RUSH CITY      MOSUNNY   75  56  50 S8G16     29.71F
MOOSE LAKE     PTSUNNY   73  55  53 S8        29.67F
HINCKLEY       FAIR      73  59  60 S13       29.71F
CLOQUET        MOSUNNY   70  52  52 SE6       29.69F
MCGREGOR       MOSUNNY   73  54  49 S10G20    29.68S
$$
MNZ071>073-080-081-089-090-097-098-262100-
   Southwest Minnesota

CITY           SKY/WX    TMP DP  RH WIND       PRES   REMARKS
MONTEVIDEO     SUNNY     75  45  33 NW10G20   29.76S
CANBY          MOSUNNY   71  48  43 NW15G23   29.79S
MARSHALL       SUNNY     72  47  40 W18       29.78R
REDWOOD FALLS  SUNNY     75  48  38 W10G20    29.75S
OLIVIA         SUNNY     73  50  43 W16G26    29.75S
PIPESTONE      SUNNY     70  39  32 NW17      29.81S
WINDOM         SUNNY     77  46  33 W13G20    29.77F
WORTHINGTON    SUNNY     74  49  41 W16       29.80R
JACKSON        SUNNY     77  45  31 W8G17     29.78F
TRACY          SUNNY     73  50  44 W8G21     29.78F
SLAYTON        SUNNY     71  47  42 W16       29.81S
$$
MNZ065>067-074>077-082>085-091>093-262100-
   South Central Minnesota

CITY           SKY/WX    TMP DP  RH WIND       PRES   REMARKS
MANKATO        MOSUNNY   78  52  40 W12G24    29.74F
NEW ULM        SUNNY     75  48  38 W15       29.75R
ST JAMES       SUNNY     77  52  41 W13       29.76F
FAIRMONT       SUNNY     77  51  40 NW12      29.76F
GLENCOE        MOSUNNY   78  55  44 SW6       29.73R
FARIBAULT      MOSUNNY   77  59  53 S10       29.75F
OWATONNA       SUNNY     75  55  50 S12       29.76S
WASECA         MOSUNNY   77  57  50 SW7       29.77S
ALBERT LEA     MOSUNNY   75  57  53 S7        29.77S
$$
MNZ078>079-086>088-094>096-262100-
   Southeast Minnesota

CITY           SKY/WX    TMP DP  RH WIND       PRES   REMARKS
ROCHESTER      MOSUNNY   71  58  63 S13       29.79R
RED WING       PTSUNNY   75  54  46 S8        29.74S
STANTON        CLOUDY    75  58  55 SW10      29.74S
DODGE CENTER   MOSUNNY   73  55  53 S9        29.78S
WINONA         CLOUDY    73  55  53 SW8       29.78F
AUSTIN         SUNNY     73  57  56 SW5       29.77F
PRESTON        CLOUDY    68  56  64 S8        29.81S
$$
ABBREVIATIONS USED IN REMARKS
   TC - TEMPERATURES IN CELSIUS
  WCI - WIND CHILL INDEX
   HX - HEAT INDEX
  VSB - VISIBILITY
$$




USA.gov is the U.S. government's official web portal to all federal, state and local government web resources and services.